Location: Maddington
(51.2000°N, 1.9167°W)
Time: 22:49:19
(UTC+00:00)

Okean 2 Rocket - Pass Details

Date: 18 September 2020
Orbit: 616 x 642 km, 82.5° (Epoch: 21 October)

Event Time Altitude Azimuth Distance (km) Brightness Sun altitude
Rises 19:41:13 0° 184° (S) 2,934 6.4 -14.1°
Reaches altitude 10° 19:43:28 10° 182° (S) 2,027 5.5 -14.5°
Maximum altitude 19:47:57 75° 98° (E) 665 3.0 -15.1°
Drops below altitude 10° 19:52:27 10° 13° (NNE) 2,029 5.8 -15.8°
Sets 19:54:41 0° 12° (NNE) 2,938 6.7 -16.1°
